Simultaneous Nadir Overpasses (SNOs) Predictions

Prediction of SNOs between LANDSAT-8 and METOP-A Satellite Orbit:

Table of predicted SNOs for the next 14.0 days since TLE Epoch: 4/6/2018
Index Date (LANDSAT-8) Time (LANDSAT-8) Lat,Lon (LANDSAT-8) SZA (LANDSAT-8 ) Date (METOP-A) Time (METOP-A) Lat,Lon (METOP-A) SZA (METOP-A ) Distance(km) Time Diff (sec)
1 04/09/2018 06:41:14 81.31, 121.97 75.96 04/09/2018 06:40:25 81.31, 121.88 75.93 1.54 49
2 04/09/2018 07:30:40 -81.32, -70.10 104.02 04/09/2018 07:31:04 -81.33, -69.98 103.99 2.07 24
3 04/12/2018 02:15:26 81.32,-171.37 74.98 04/12/2018 02:14:41 81.32,-171.23 74.97 2.36 45
4 04/12/2018 03:04:52 -81.33, -3.42 105.00 04/12/2018 03:05:21 -81.33, -3.44 104.99 0.84 29
5 04/14/2018 21:49:40 81.31,-105.12 73.95 04/14/2018 21:49:00 81.31,-105.14 73.94 0.60 40
6 04/14/2018 22:39:06 -81.33, 62.86 106.01 04/14/2018 22:39:40 -81.32, 62.69 106.02 2.92 34
7 04/17/2018 17:23:53 81.32, -38.52 73.00 04/17/2018 17:23:18 81.31, -38.66 72.97 2.39 35
8 04/17/2018 18:13:19 -81.34, 129.49 106.96 04/17/2018 18:13:57 -81.33, 129.58 106.94 1.69 38
9 04/20/2018 12:58:05 81.32, 28.06 72.07 04/20/2018 12:57:34 81.32, 28.20 72.07 2.34 31




NCC Satellite Simultaneous Nadir Overpasses (SNOs) Prediction Service
